[[{"header":{"parameterUnit":"m.s-1","parameterCategory":1,"la1":30.2991,"la2":30.254,"lo1":-89.0895,"lo2":-89.0444,"dy":0.0017,"dx":0.0017,"nx":28,"ny":28,"refTime":"2025-03-16T09:00:00:Z","depth":0,"parameterNumber":2,"parameterNumberName":"U-component_of_WINDS"},"data":[0,0,0,0,0,0,0,0,0,0,0,0,0,0,0,0,0,0,0,0,0,0,0,0,0,0,0,0,0,0,0,0,0,0,0,0,0,0,0,0,0,0,0,0,0,0,0,0,0,0,0,0,0,0,0,0,0,0,3.7365,3.7366,0,3.7469,3.7471,3.7472,3.7426,3.7423,3.7421,3.7419,3.7526,3.7531,3.7537,0,0,0,0,0,0,0,0,0,0,0,0,0,3.7129,3.7133,3.7365,3.7366,3.7368,3.7469,3.7471,3.7472,3.7427,3.7423,3.742,3.7417,3.7525,3.7531,3.7537,0,0,0,0,0,0,0,0,0,0,0,0,0,3.7232,3.7135,3.7365,3.7357,3.7357,3.7469,3.7471,3.7472,3.7427,3.7423,3.7419,3.7416,3.7522,3.753,3.7538,3.7663,0,0,3.7562,3.7565,0,0,0,0,0,0,0,0,3.7226,3.7241,3.7357,3.7358,3.7358,3.7431,3.7427,3.7536,3.7428,3.7401,3.7418,3.7414,3.7498,3.7507,3.7535,3.7668,3.7673,3.7563,3.7567,3.7571,3.7573,0,0,0,0,0,0,0,3.7219,3.7236,3.7406,3.7359,3.736,3.7349,3.736,3.7447,3.7469,3.7403,3.74,3.7413,3.7497,3.7528,3.7537,3.7674,3.7562,3.7569,3.7574,3.7577,3.7918,3.7922,0,0,0,0,0,0,3.7212,3.723,3.7403,3.7409,3.7282,3.7357,3.7368,3.7411,3.7468,3.7473,3.7416,3.741,3.7516,3.7528,3.7541,3.7693,3.7571,3.7578,3.7583,3.7913,3.7919,3.7923,0,0,0,0,0,0,3.7207,3.7228,3.7399,3.7319,3.734,3.7365,3.7414,3.7416,3.7446,3.7478,3.7482,3.7443,3.7514,3.753,3.7634,3.7696,3.7582,3.7589,3.7908,3.7915,3.7921,3.7997,0,0,0,0,0,0,3.72,3.7226,3.7273,3.7321,3.7345,3.7489,3.7417,3.742,3.746,3.7453,3.7505,3.7509,3.7512,3.7622,3.7641,3.7705,3.7595,3.7903,3.7911,3.7919,3.7989,3.8005,3.8019,0,0,0,0,0,3.7192,3.729,3.7276,3.7297,3.7404,3.7493,3.7507,3.7507,3.7465,3.7513,3.7534,3.7508,3.7686,3.7633,3.7654,3.7721,3.7899,3.7909,3.7918,3.7982,3.8002,3.8018,0,0,0,0,0,0,3.725,3.7296,3.7281,3.7397,3.7441,3.7485,3.7545,3.7528,3.7585,3.7577,3.7575,3.7588,3.7695,3.7718,3.7658,3.7846,3.7786,3.7801,3.7827,3.7846,3.7861,3.7853,3.7601,0,0,0,0,0,3.7276,3.7343,3.7381,3.748,3.7503,3.7521,3.7559,3.7556,3.7602,3.762,3.7649,3.7695,3.7761,3.7805,3.7868,3.7992,3.8003,3.8048,3.8063,3.8076,3.8088,3.8157,3.8178,3.7955,3.7955,3.7955,0,0,3.7331,3.7365,3.7407,3.7492,3.7526,3.7597,3.7537,3.7614,3.7667,3.7632,3.7732,3.7755,3.7806,3.7921,3.7973,3.7944,3.8153,3.8088,3.8097,3.8104,3.817,3.8191,3.8209,3.7962,3.7961,3.7959,0,0,3.7467,3.7499,3.7586,3.7621,3.7674,3.7685,3.7706,3.7753,3.7767,3.7867,3.7843,3.7906,3.802,3.8058,3.8093,3.8246,3.8224,3.8266,3.8345,3.8412,3.843,3.8445,3.8501,3.8521,3.8279,3.8279,3.8279,0,3.7529,3.7634,3.7633,3.7713,3.7751,3.7724,3.7812,3.7847,3.7917,3.7945,3.7911,3.8055,3.8088,3.8212,3.8249,3.8278,3.8303,3.826,3.8427,3.8443,3.8458,3.8511,3.8532,3.8284,3.8283,3.8283,3.8282,0,3.7708,3.7782,3.7846,3.7914,3.796,3.8044,3.8057,3.8104,3.8097,3.8113,3.8216,3.8254,3.8325,3.8354,3.8348,3.8479,3.8459,3.8427,3.8366,3.8484,3.8534,3.8554,3.8291,3.8289,3.8287,3.8286,0,0,3.7882,3.7951,3.7974,3.8006,3.8062,3.812,3.8203,3.8272,3.8313,3.8363,3.8434,3.8532,3.8503,3.8542,3.854,3.86,3.872,3.856,3.8561,3.8589,3.8868,3.8892,3.8916,3.8706,3.871,3.8713,3.8864,0,3.8024,3.8169,3.8171,3.8305,3.8374,3.835,3.8423,3.8466,3.8483,3.8545,3.8564,3.8634,3.859,3.8613,3.8671,3.8693,3.8776,3.8682,3.8773,3.8776,3.8761,3.8941,3.8967,3.9107,3.8883,3.8886,3.8889,0,3.8207,3.8264,3.8405,3.8453,3.8482,3.8547,3.8612,3.8671,3.872,3.8728,3.8773,3.8763,3.8849,3.8786,3.8906,3.8842,3.888,3.8897,3.8902,3.8911,3.884,3.8956,3.9151,3.9173,3.8919,3.8917,3.8915,0,3.8322,3.8433,3.8532,3.856,3.8618,3.8665,3.8691,3.8737,3.8779,3.8836,3.8863,3.893,3.8966,3.9018,3.9027,3.898,3.9148,3.9085,3.9158,3.9158,3.9194,3.9192,3.94,3.9218,3.9218,3.9217,3.9217,0,3.8479,3.8567,3.8584,3.8645,3.8743,3.8746,3.8843,3.8866,3.8907,3.8973,3.8956,3.9018,3.9026,3.9091,3.9098,3.9197,3.9213,3.9223,3.9224,3.9225,3.9224,3.925,3.9241,3.9223,3.9222,3.9221,3.922,0,3.8624,3.8639,3.8745,3.8792,3.8806,3.8876,3.8917,3.8976,3.8992,3.9076,3.9096,3.9121,3.9197,3.9211,3.93,3.9305,3.9423,3.9414,3.9407,3.9406,3.9478,3.9472,3.971,3.9742,3.9539,3.9541,3.9542,0,3.8723,3.879,3.8845,3.8888,3.8917,3.8986,3.9029,3.9035,3.9081,3.9143,3.9195,3.9269,3.9328,3.945,3.9477,3.9546,3.9539,3.9618,3.9549,3.9548,3.9541,3.9537,3.9545,3.9631,3.9633,3.9635,3.9636,0,3.8899,3.8904,3.8966,3.9033,3.9085,3.9137,3.9187,3.9223,3.9236,3.9288,3.9366,3.9412,3.9503,3.9578,3.9646,3.9675,3.9659,3.9658,3.9679,3.968,3.9673,3.9679,3.9443,3.9652,3.9651,3.9649,3.9649,3.9648,3.9025,3.9084,3.9132,3.9203,3.9241,3.9288,3.9346,3.937,3.9434,3.9509,3.9509,3.9594,3.9643,3.9734,3.9767,3.9834,3.9809,3.9839,3.9847,3.9854,3.9861,3.9663,3.9847,3.9846,3.9846,3.9845,3.9845,0,3.92,3.9231,3.9296,3.9366,3.9423,3.9402,3.9457,3.9505,3.958,3.9627,3.9687,3.9776,3.9849,3.9882,3.9954,4.0001,3.9996,4.002,4.0017,4.0024,3.9879,3.9854,4.0023,4.0023,4.0023,4.0023,4.0023,4.0023,3.9299,3.9398,3.9408,3.9527,3.9556,3.9639,3.9672,3.9716,3.9754,3.9855,3.9915,3.9936,3.9979,4.0053,4.0119,4.0127,4.0155,4.0183,4.0188,4.0052,4.0034,4.0016,3.9993,4.0189,4.0189,4.0327,4.0328,4.0329]},{"header":{"parameterUnit":"m.s-1","parameterCategory":1,"la1":30.2991,"la2":30.254,"lo1":-89.0895,"lo2":-89.0444,"dy":0.0017,"dx":0.0017,"nx":28,"ny":28,"refTime":"2025-03-16T09:00:00:Z","depth":0,"parameterNumber":3,"parameterNumberName":"V-component_of_WINDS"},"data":[0,0,0,0,0,0,0,0,0,0,0,0,0,0,0,0,0,0,0,0,0,0,0,0,0,0,0,0,0,0,0,0,0,0,0,0,0,0,0,0,0,0,0,0,0,0,0,0,0,0,0,0,0,0,0,0,0,0,-5.5733,-5.5735,0,-5.5995,-5.5998,-5.6001,-5.5981,-5.5977,-5.5973,-5.5969,-5.624,-5.6251,-5.6262,0,0,0,0,0,0,0,0,0,0,0,0,0,-5.5218,-5.5228,-5.5732,-5.5736,-5.5739,-5.5994,-5.5998,-5.6001,-5.5981,-5.5976,-5.5972,-5.5967,-5.6237,-5.6249,-5.6263,0,0,0,0,0,0,0,0,0,0,0,0,0,-5.5457,-5.5231,-5.5732,-5.576,-5.5765,-5.5993,-5.5998,-5.6002,-5.5982,-5.5976,-5.597,-5.5965,-5.6232,-5.6248,-5.6264,-5.6483,0,0,-5.6314,-5.6321,0,0,0,0,0,0,0,0,-5.5443,-5.5476,-5.5752,-5.5758,-5.5764,-5.5949,-5.5916,-5.6164,-5.5984,-5.59,-5.5969,-5.5962,-5.6148,-5.6171,-5.6233,-5.6496,-5.6508,-5.6316,-5.6326,-5.6333,-5.6337,0,0,0,0,0,0,0,-5.5427,-5.5464,-5.5836,-5.5756,-5.5764,-5.576,-5.5788,-5.5963,-5.6054,-5.5907,-5.5906,-5.5937,-5.615,-5.6218,-5.624,-5.6512,-5.6315,-5.633,-5.634,-5.6346,-5.6969,-5.6976,0,0,0,0,0,0,-5.5404,-5.5451,-5.5828,-5.5844,-5.5586,-5.5774,-5.5805,-5.5896,-5.6052,-5.607,-5.5942,-5.5935,-5.6193,-5.622,-5.6249,-5.6518,-5.6332,-5.6348,-5.6357,-5.6963,-5.6971,-5.6978,0,0,0,0,0,0,-5.5393,-5.5437,-5.5817,-5.5647,-5.5695,-5.5789,-5.5891,-5.5904,-5.5971,-5.6078,-5.6095,-5.5994,-5.6189,-5.6226,-5.6426,-5.6527,-5.6355,-5.637,-5.6955,-5.6965,-5.6975,-5.7055,0,0,0,0,0,0,-5.5378,-5.5433,-5.5517,-5.5649,-5.5705,-5.5989,-5.5898,-5.5913,-5.5999,-5.5993,-5.6131,-5.6149,-5.6187,-5.6401,-5.6442,-5.6546,-5.6383,-5.6946,-5.6959,-5.6971,-5.7044,-5.7066,-5.7086,0,0,0,0,0,-5.536,-5.5529,-5.5521,-5.5567,-5.581,-5.5994,-5.6026,-5.6066,-5.6007,-5.6092,-5.6162,-5.6144,-5.6508,-5.6422,-5.6467,-5.6578,-5.694,-5.6956,-5.697,-5.7034,-5.7062,-5.7085,0,0,0,0,0,0,-5.5407,-5.5547,-5.554,-5.5757,-5.5864,-5.5991,-5.6099,-5.6094,-5.6221,-5.621,-5.6255,-5.6286,-5.6488,-5.6552,-5.6453,-5.6799,-5.6717,-5.6742,-5.675,-5.6777,-5.6798,-5.6779,-5.6396,0,0,0,0,0,-5.5442,-5.5579,-5.5694,-5.5875,-5.5929,-5.6005,-5.6086,-5.6108,-5.6221,-5.6267,-5.635,-5.6462,-5.6601,-5.6692,-5.6827,-5.7052,-5.7084,-5.7151,-5.7172,-5.7189,-5.7211,-5.7337,-5.7369,-5.7028,-5.7028,-5.7028,0,0,-5.5517,-5.5611,-5.5694,-5.5887,-5.5972,-5.6114,-5.6043,-5.6196,-5.6302,-5.629,-5.6484,-5.6549,-5.6677,-5.6891,-5.6989,-5.6951,-5.7312,-5.7208,-5.7221,-5.7234,-5.7356,-5.7388,-5.7417,-5.7038,-5.7037,-5.7035,0,0,-5.5727,-5.5811,-5.5971,-5.6058,-5.6188,-5.6238,-5.6276,-5.6405,-5.6448,-5.6643,-5.6637,-5.6765,-5.7003,-5.7095,-5.7173,-5.7418,-5.7408,-5.7461,-5.7572,-5.7695,-5.7722,-5.7746,-5.7836,-5.7868,-5.7482,-5.7482,-5.7482,0,-5.5804,-5.6017,-5.6054,-5.6209,-5.6295,-5.629,-5.6454,-5.6537,-5.6704,-5.6764,-5.6718,-5.702,-5.7105,-5.7341,-5.7401,-5.7464,-5.7511,-5.7446,-5.7715,-5.774,-5.7763,-5.7849,-5.7882,-5.7488,-5.7487,-5.7486,-5.7486,0,-5.6107,-5.6254,-5.6369,-5.653,-5.6629,-5.6787,-5.685,-5.6946,-5.6959,-5.7014,-5.7213,-5.7315,-5.7471,-5.7528,-5.7543,-5.7768,-5.7741,-5.7705,-5.7623,-5.78,-5.7882,-5.7915,-5.7496,-5.7494,-5.7492,-5.7491,0,0,-5.6354,-5.6535,-5.6577,-5.6651,-5.6794,-5.691,-5.7069,-5.722,-5.7302,-5.7418,-5.7554,-5.7757,-5.7725,-5.7813,-5.7838,-5.7945,-5.8136,-5.7897,-5.79,-5.7939,-5.8394,-5.8421,-5.8459,-5.8129,-5.8136,-5.8141,-5.8384,0,-5.658,-5.6861,-5.69,-5.7149,-5.7287,-5.7284,-5.7423,-5.7527,-5.7583,-5.7709,-5.7771,-5.7915,-5.786,-5.7914,-5.802,-5.809,-5.8228,-5.8073,-5.8259,-5.8265,-5.8229,-5.8501,-5.8531,-5.8755,-5.8416,-5.8421,-5.8425,0,-5.6881,-5.7005,-5.7268,-5.7394,-5.7453,-5.7577,-5.7721,-5.7841,-5.7959,-5.7992,-5.8091,-5.8103,-5.827,-5.818,-5.8411,-5.8304,-5.8382,-5.8429,-5.8438,-5.8459,-5.8357,-5.8531,-5.8827,-5.8862,-5.8475,-5.8471,-5.8468,0,-5.7038,-5.7271,-5.7459,-5.7522,-5.7673,-5.7761,-5.7828,-5.794,-5.8029,-5.8155,-5.8214,-5.8357,-5.8436,-5.8547,-5.8598,-5.8527,-5.8827,-5.874,-5.8861,-5.886,-5.8926,-5.8922,-5.9241,-5.8973,-5.8972,-5.8971,-5.8971,0,-5.7288,-5.7449,-5.7531,-5.7647,-5.7828,-5.7872,-5.8051,-5.8115,-5.8216,-5.8345,-5.8351,-5.8473,-5.8531,-5.8662,-5.8703,-5.889,-5.8925,-5.8958,-5.8967,-5.8959,-5.8955,-5.9012,-5.8999,-5.898,-5.8978,-5.8977,-5.8975,0,-5.7495,-5.7556,-5.7761,-5.7887,-5.7922,-5.8051,-5.816,-5.8273,-5.8327,-5.8491,-5.8532,-5.8619,-5.8773,-5.8834,-5.9024,-5.9051,-5.9267,-5.9263,-5.9227,-5.9231,-5.9349,-5.9338,-5.9718,-5.9771,-5.9465,-5.9468,-5.947,0,-5.7651,-5.7775,-5.7914,-5.8001,-5.8071,-5.8211,-5.8302,-5.835,-5.8445,-5.859,-5.8686,-5.884,-5.8966,-5.9214,-5.9295,-5.944,-5.9441,-5.9564,-5.9463,-5.9452,-5.9446,-5.9439,-5.9453,-5.9584,-5.9587,-5.9589,-5.9591,0,-5.7922,-5.7947,-5.8077,-5.8219,-5.8328,-5.8442,-5.8554,-5.8625,-5.869,-5.8797,-5.8955,-5.9052,-5.9246,-5.94,-5.955,-5.962,-5.9619,-5.9622,-5.9658,-5.9652,-5.9627,-5.9645,-5.9281,-5.9614,-5.9611,-5.961,-5.9609,-5.9608,-5.8111,-5.8221,-5.8337,-5.8483,-5.8572,-5.8676,-5.8789,-5.8858,-5.899,-5.9151,-5.9171,-5.9342,-5.9459,-5.966,-5.9737,-5.9872,-5.984,-5.9891,-5.9905,-5.9917,-5.9927,-5.9604,-5.9899,-5.9898,-5.9898,-5.9897,-5.9897,0,-5.8384,-5.8459,-5.8592,-5.8748,-5.8863,-5.8849,-5.8972,-5.907,-5.9219,-5.9328,-5.9452,-5.9635,-5.9785,-5.9877,-6.0028,-6.0118,-6.0121,-6.0157,-6.0152,-6.0169,-5.9945,-5.99,-6.0152,-6.0152,-6.0152,-6.0152,-6.0152,-6.0152,-5.854,-5.8728,-5.8766,-5.8999,-5.9072,-5.9239,-5.931,-5.9407,-5.9495,-5.9698,-5.9822,-5.9881,-5.9984,-6.0143,-6.028,-6.0304,-6.036,-6.0399,-6.042,-6.021,-6.0184,-6.0159,-6.0117,-6.041,-6.041,-6.0633,-6.0635,-6.0636]}]]